Find Kosmos-1109

NORAD ID: 11417 Int'l Des: 1979-058 Owner: PVO Country: SU operational
MEOELLIPTICALHEO_ELLIPTICALSEMI_SYNC

現在のビュー

3D地球を読み込み中...

About Kosmos-1109

Kosmos-1109 (NORAD 11417) is a satellite launched Jun 27, 1979 by PVO of SU. It operates in MEO, ELLIPTICAL, HEO_ELLIPTICAL, SEMI_SYNC orbit with a mass of 1250.00 kg.

次回通過

Passes for default location (London). Set your location on the main map for personalized predictions.

高度履歴

Loading altitude history...

軌道要素

1 11417U 79058A 26192.31998492 .00000838 00000-0 00000-0 0 9997
2 11417 70.6821 189.8409 6016766 195.3879 132.3838 2.01379550234327
Epoch: Jul 11, 2026 • Age: 67 hours

現在のステータス

高度 5836.2 km
遠地点 / 近地点 N/A
速度 7.09 km/s
衛星直下点 32.90°N, 28.05°E
打ち上げ日 Jun 27, 1979
運用期間 47 years
タイプ other

技術仕様

分類 Payload
質量 1250.00 kg
乾燥質量 1150.00 kg
総質量 1250.00 kg
長さ 4.00 m
直径 2.00 m
スパン 5.00 m
形状 Cyl + 2 Pan
製造者 NPOL/KOMET
バスタイプ Oko
フェーズステータス In Orbit
所有者/国 PVO/SU

Most Searched